Regional Weather Roundup
Issued by NWS

Home | Current Version | Previous Version | Graphics & Text | Print | Product List | Glossary On
Versions: 1 2 3 4 5 6 7 8 9 10 11 12 13 14 15 16 17 18 19 20 21 22 23 24 25 26 27 28 29 30 31 32 33 34 35 36 37 38 39 40 41 42 43 44 45 46 47 48 49 50
000
ASUS43 KTOP 040759
RWRKS

WEATHER ROUNDUP FOR KANSAS
NATIONAL WEATHER SERVICE GOODLAND KS
200 AM CST SUN DEC 04 2016

NOTE:  "FAIR" INDICATES FEW OR NO CLOUDS BELOW 12,000 FEET WITH NO
SIGNIFICANT WEATHER AND/OR OBSTRUCTIONS TO VISIBILITY.

KSZ001>006-013>018-027>032-041>047-040900-
NORTHWEST KANSAS

CITY           SKY/WX    TMP DP  RH WIND       PRES   REMARKS
GOODLAND       CLEAR     22  13  68 W13       30.02F WCI  10
HAYS           CLOUDY    32  31  96 W8        30.04S
HILL CITY      CLOUDY    35  34  96 W7        30.03S FOG
RUSSELL        PTCLDY    32  31  96 W7        30.02R FOG
$$

KSZ061>065-074>080-084>089-040900-
SOUTHWEST KANSAS

CITY           SKY/WX    TMP DP  RH WIND       PRES   REMARKS
DODGE CITY     FOG       33  32  96 NW8       30.04R VSB 1/4
ELKHART          N/A     30  25  82 NW7         N/A
GARDEN CITY    FOG       32  31  96 W10       30.02F VSB 1/4 WCI  24
GREAT BEND     CLOUDY    37  36  96 NW5       30.04R
LIBERAL        CLOUDY    37  34  87 NW10      30.05R WCI  30
$$

KSZ066>073-081>083-090>101-040900-
SOUTHEAST KANSAS

CITY           SKY/WX    TMP DP  RH WIND       PRES   REMARKS
CHANUTE        LGT RAIN  41  39  93 E7        30.04F FOG
COFFEYVILLE    LGT RAIN  42  41  96 NE5       30.04F FOG
HUTCHINSON     LGT RAIN  40  39  97 CALM      30.04S FOG
MEDICINE LODGE   N/A     40  39  97 CALM      30.03F
NEWTON         LGT RAIN  39  38  96 NE5       30.04S
PARSONS        LGT RAIN  41  40  96 E3        30.05F FOG
WICHITA INTL   LGT RAIN  41  41 100 N3        30.03F FOG
WICHITA JABRA  RAIN      40  40 100 N3        30.03S FOG
WICHITA MCCONL LGT RAIN  41  39  93 NE6       30.03F
WINFIELD       LGT RAIN  42  42 100 N6        30.03S
$$

KSZ007>012-019>026-033>040-048>060-102>105-040900-
NORTHEAST KANSAS

CITY           SKY/WX    TMP DP  RH WIND       PRES   REMARKS
CONCORDIA      CLOUDY    36  36 100 W6        30.03F
EMPORIA        RAIN      40  40 100 N3        30.04S FOG
LAWRENCE       LGT RAIN  41  41 100 CALM      30.06S FOG
MANHATTAN      LGT RAIN  40  39  97 CALM      30.05F FOG
OLATHE IND     LGT RAIN  40  39  97 SE9       30.05F
OLATHE EXE     LGT RAIN  39  38  96 SE8       30.05F FOG
SALINA         LGT RAIN  41  40  96 S5        30.04F
TOPEKA BILLARD LGT RAIN  40  38  93 CALM      30.05F FOG
TOPEKA FORBES  LGT RAIN  42  40  92 CALM      30.05S FOG
$$




USA.gov is the U.S. government's official web portal to all federal, state and local government web resources and services.